Date String (YYYY-MM-DD hh:mm:ss) UTC,Instrument flags,Ambient pressure (hPa),Sample flow (lpm),Bypass flow (lpm),Sample temperature (°C),Ambient temperature (°C),ASC tube jacket temperature (°C),LED temperature (°C),Box temperature (°C),Sample RH (%),Span deviation,Mass concentration (μg/m³),Mass concentration (μg/m³),Mass concentration (μg/m³)
DateTimeUTC,F1_M11,P_M11,Q1_M11,Q2_M11,T1_M11,T2_M11,T3_M11,T4_M11,T5_M11,U1_M11,ZSPAN_M11,X0_M11,X2_M11,X1_M11
2022-11-29 10:00:00,,0813.3,5.00,0.00,22.1,20.8,00.0,31.1,23.9,11.9,0000.0,0003.78,0001.26,0001.00
2022-11-29 10:01:00,,0813.3,4.99,0.00,22.2,21.6,00.0,31.1,24.1,11.9,0000.0,0003.21,0001.27,0001.00
2022-11-29 10:02:00,,0813.4,5.01,0.00,22.3,22.3,00.0,31.0,24.3,11.8,0000.0,0002.19,0001.27,0000.99
2022-11-29 10:03:00,,0813.4,5.00,0.00,22.3,22.2,00.0,31.1,24.3,11.8,0000.0,0002.12,0001.24,0000.99
2022-11-29 10:04:00,,0813.4,4.98,0.00,22.4,21.9,00.0,31.1,24.2,11.8,0000.0,0001.96,0001.22,0000.99
2022-11-29 10:05:00,,0813.5,5.02,0.00,22.3,21.6,00.0,31.2,24.2,11.8,0000.0,0001.88,0001.21,0001.00
2022-11-29 10:06:00,,0813.5,4.99,0.00,22.3,21.4,00.0,31.2,24.1,11.8,0000.0,0001.97,0001.26,0001.00
2022-11-29 10:07:00,,0813.6,4.99,0.00,22.3,21.2,00.0,31.2,24.1,11.8,0000.0,0001.86,0001.21,0001.00
2022-11-29 10:08:00,,0813.6,5.00,0.00,22.3,21.1,00.0,31.2,24.1,11.8,0000.0,0001.87,0001.22,0001.00
2022-11-29 10:09:00,,0813.5,5.00,0.00,22.3,21.1,00.0,31.2,24.1,11.8,0000.0,0001.81,0001.21,0001.00
2022-11-29 10:10:00,,0813.5,5.00,0.00,22.3,21.0,00.0,31.2,24.0,11.8,0000.0,0001.73,0001.21,0001.01
2022-11-29 10:11:00,,0813.5,5.00,0.00,22.2,20.9,00.0,31.2,24.0,11.8,0000.0,0001.62,0001.21,0001.01
2022-11-29 10:12:00,,0813.5,5.00,0.00,22.2,20.9,00.0,31.2,24.0,11.8,0000.0,0001.61,0001.19,0001.00
2022-11-29 10:13:00,,0813.5,5.01,0.00,22.3,21.4,00.0,31.1,24.1,11.8,0000.0,0001.50,0001.14,0000.98
2022-11-29 10:14:00,,0813.4,5.00,0.00,22.4,22.3,00.0,31.1,24.3,11.7,0000.0,0001.52,0001.12,0000.96
2022-11-29 10:15:00,,0813.4,4.98,0.00,22.4,22.3,00.0,31.2,24.4,11.7,0000.0,0001.57,0001.13,0000.94
2022-11-29 10:16:00,,0813.4,5.02,0.00,22.4,22.0,00.0,31.2,24.3,11.6,0000.0,0001.68,0001.12,0000.91
2022-11-29 10:17:00,,0813.5,5.00,0.00,22.4,21.7,00.0,31.3,24.3,11.6,0000.0,0001.62,0001.07,0000.88
2022-11-29 10:18:00,,0813.4,4.99,0.00,22.4,21.5,00.0,31.3,24.2,11.6,0000.0,0001.60,0001.07,0000.85
2022-11-29 10:19:00,,0813.4,5.00,0.00,22.4,21.3,00.0,31.3,24.2,11.6,0000.0,0001.55,0001.02,0000.82
2022-11-29 10:20:00,,0813.4,5.00,0.00,22.4,21.1,00.0,31.3,24.1,11.6,0000.0,0001.59,0001.00,0000.79
2022-11-29 10:21:00,,0813.4,5.01,0.00,22.3,21.0,00.0,31.3,24.1,11.6,0000.0,0002.16,0000.98,0000.76
2022-11-29 10:22:00,,0813.4,5.00,0.00,22.3,21.0,00.0,31.3,24.1,11.6,0000.0,0003.27,0000.94,0000.71
2022-11-29 10:23:00,,0813.4,5.01,0.00,22.3,20.9,00.0,31.3,24.1,11.6,0000.0,0003.47,0000.89,0000.68
2022-11-29 10:24:00,,0813.4,5.00,0.00,22.3,21.3,00.0,31.2,24.1,11.6,0000.0,0003.43,0000.88,0000.67
2022-11-29 10:25:00,,0813.5,5.00,0.00,22.4,22.2,00.0,31.2,24.3,11.5,0000.0,0003.44,0000.89,0000.67
2022-11-29 10:26:00,,0813.5,4.98,0.00,22.5,22.5,00.0,31.2,24.5,11.5,0000.0,0003.40,0000.85,0000.64
2022-11-29 10:27:00,,0813.5,5.00,0.00,22.5,22.1,00.0,31.3,24.4,11.5,0000.0,0003.35,0000.85,0000.63
2022-11-29 10:28:00,,0813.5,5.02,0.00,22.5,21.8,00.0,31.3,24.3,11.5,0000.0,0003.27,0000.82,0000.62
2022-11-29 10:29:00,,0813.5,5.00,0.00,22.4,21.5,00.0,31.3,24.3,11.5,0000.0,0003.28,0000.80,0000.61
2022-11-29 10:30:00,,0813.5,4.99,0.00,22.4,21.4,00.0,31.4,24.2,11.5,0000.0,0003.26,0000.79,0000.61
2022-11-29 10:31:00,,0813.5,5.00,0.00,22.4,21.2,00.0,31.4,24.2,11.5,0000.0,0003.27,0000.78,0000.60
2022-11-29 10:32:00,,0813.4,5.00,0.00,22.4,21.1,00.0,31.4,24.2,11.5,0000.0,0002.68,0000.77,0000.59
2022-11-29 10:33:00,,0813.4,5.00,0.00,22.4,21.0,00.0,31.3,24.1,11.5,0000.0,0001.68,0000.78,0000.58
2022-11-29 10:34:00,,0813.5,5.00,0.00,22.4,21.0,00.0,31.3,24.1,11.5,0000.0,0001.37,0000.81,0000.59
2022-11-29 10:35:00,,0813.5,5.00,0.00,22.3,20.9,00.0,31.3,24.1,11.6,0000.0,0001.57,0000.83,0000.58
2022-11-29 10:36:00,,0813.5,4.99,0.00,22.3,20.8,00.0,31.3,24.1,11.6,0000.0,0001.60,0000.84,0000.59
2022-11-29 10:37:00,,0813.5,5.00,0.00,22.3,21.0,00.0,31.3,24.1,11.6,0000.0,0001.53,0000.82,0000.59
2022-11-29 10:38:00,,0813.5,5.02,0.00,22.4,21.8,00.0,31.2,24.3,11.5,0000.0,0001.58,0000.83,0000.59
2022-11-29 10:39:00,,0813.5,5.01,0.00,22.5,22.5,00.0,31.2,24.5,11.5,0000.0,0001.57,0000.83,0000.59
2022-11-29 10:40:00,,0813.4,4.97,0.00,22.5,22.3,00.0,31.3,24.5,11.4,0000.0,0001.54,0000.83,0000.60
2022-11-29 10:41:00,,0813.5,5.01,0.00,22.5,21.9,00.0,31.3,24.4,11.4,0000.0,0001.56,0000.84,0000.61
2022-11-29 10:42:00,,0813.3,5.01,0.00,22.5,21.6,00.0,31.4,24.3,11.5,0000.0,0001.69,0000.88,0000.63
2022-11-29 10:43:00,,0813.3,4.99,0.00,22.5,21.4,00.0,31.4,24.3,11.5,0000.0,0001.65,0000.88,0000.64
2022-11-29 10:44:00,,0813.3,5.00,0.00,22.4,21.2,00.0,31.4,24.2,11.5,0000.0,0001.61,0000.87,0000.66
2022-11-29 10:45:00,,0813.3,5.00,0.00,22.4,21.1,00.0,31.4,24.2,11.5,0000.0,0001.54,0000.84,0000.65
2022-11-29 10:46:00,,0813.3,5.00,0.00,22.4,21.0,00.0,31.4,24.1,11.5,0000.0,0001.46,0000.82,0000.66
2022-11-29 10:47:00,,0813.5,5.00,0.00,22.4,21.0,00.0,31.4,24.1,11.5,0000.0,0001.40,0000.82,0000.68
2022-11-29 10:48:00,,0813.4,5.00,0.00,22.3,20.9,00.0,31.3,24.1,11.5,0000.0,0001.40,0000.83,0000.69
2022-11-29 10:49:00,,0813.4,4.99,0.00,22.3,21.0,00.0,31.3,24.1,11.5,0000.0,0001.43,0000.85,0000.70
2022-11-29 10:50:00,,0813.5,5.00,0.00,22.4,21.7,00.0,31.3,24.3,11.5,0000.0,0001.39,0000.85,0000.71
2022-11-29 10:51:00,,0813.6,5.01,0.00,22.5,22.5,00.0,31.3,24.5,11.5,0000.0,0001.43,0000.86,0000.71
2022-11-29 10:52:00,,0813.5,4.98,0.00,22.6,22.4,00.0,31.3,24.5,11.4,0000.0,0001.47,0000.88,0000.72
2022-11-29 10:53:00,,0813.6,5.01,0.00,22.6,22.1,00.0,31.4,24.5,11.4,0000.0,0001.44,0000.88,0000.72
2022-11-29 10:54:00,,0813.6,5.01,0.00,22.5,21.8,00.0,31.4,24.4,11.4,0000.0,0001.45,0000.90,0000.74
2022-11-29 10:55:00,,0813.7,4.99,0.00,22.5,21.6,00.0,31.4,24.4,11.4,0000.0,0001.43,0000.89,0000.74
2022-11-29 10:56:00,,0814.1,5.00,0.00,22.5,21.5,00.0,31.4,24.3,11.4,0000.0,0001.42,0000.89,0000.74
2022-11-29 10:57:00,,0813.6,5.01,0.00,22.5,21.3,00.0,31.4,24.3,11.4,0000.0,0001.42,0000.91,0000.76
2022-11-29 10:58:00,,0813.6,5.00,0.00,22.5,21.2,00.0,31.4,24.3,11.4,0000.0,0001.36,0000.92,0000.77
2022-11-29 10:59:00,,0813.5,5.00,0.00,22.5,21.1,00.0,31.4,24.3,11.4,0000.0,0001.72,0000.92,0000.77
